Time,TemperatureF,DewpointF,PressureIn,WindDirection,WindDirectionDegrees,WindSpeedMPH,WindSpeedGustMPH,Humidity,HourlyPrecipIn,Conditions,Clouds,dailyrainin,SoftwareType,DateUTC
2013-05-03 00:01:00,49.0,39.0,30.26,NW,310,20.0,28.0,68,0.00,,,0.00,,2013-05-03 07:01:00,
2013-05-03 00:11:00,49.0,39.0,30.26,NW,310,20.0,28.0,68,0.00,,,0.00,,2013-05-03 07:11:00,
2013-05-03 00:21:00,49.0,38.0,30.26,NNW,344,19.0,33.0,66,0.00,,,0.00,,2013-05-03 07:21:00,
2013-05-03 00:31:00,49.0,38.0,30.26,NW,322,21.0,31.0,66,0.00,,,0.00,,2013-05-03 07:31:00,
2013-05-03 00:42:00,49.0,38.0,30.26,NW,322,21.0,31.0,66,0.00,,,0.00,,2013-05-03 07:42:00,
2013-05-03 00:52:00,49.0,40.0,30.27,NNW,345,23.0,31.0,71,0.00,,,0.00,,2013-05-03 07:52:00,
2013-05-03 01:01:00,49.0,39.0,30.26,NNW,338,21.0,29.0,69,0.00,,,0.00,,2013-05-03 08:01:00,
2013-05-03 01:11:00,49.0,39.0,30.26,NNW,338,21.0,29.0,69,0.00,,,0.00,,2013-05-03 08:11:00,
2013-05-03 01:21:00,49.0,39.0,30.26,NNW,340,19.0,33.0,69,0.00,,,0.00,,2013-05-03 08:21:00,
2013-05-03 01:31:00,48.0,40.0,30.26,NNW,341,17.0,28.0,74,0.00,,,0.00,,2013-05-03 08:31:00,
2013-05-03 01:41:00,48.0,40.0,30.26,NNW,341,17.0,28.0,74,0.00,,,0.00,,2013-05-03 08:41:00,
2013-05-03 01:52:00,48.0,40.0,30.27,NNW,330,19.0,28.0,74,0.00,,,0.00,,2013-05-03 08:52:00,
2013-05-03 02:01:00,48.0,41.0,30.26,NNW,344,19.0,32.0,76,0.00,,,0.00,,2013-05-03 09:01:00,
2013-05-03 02:11:00,48.0,41.0,30.26,NNW,344,19.0,32.0,76,0.00,,,0.00,,2013-05-03 09:11:00,
2013-05-03 02:21:00,48.0,41.0,30.27,NW,315,17.0,32.0,78,0.00,,,0.00,,2013-05-03 09:21:00,
2013-05-03 02:32:00,48.0,41.0,30.26,NNW,336,17.0,30.0,78,0.00,,,0.00,,2013-05-03 09:32:00,
2013-05-03 02:42:00,48.0,41.0,30.26,NNW,336,17.0,30.0,78,0.00,,,0.00,,2013-05-03 09:42:00,
2013-05-03 02:52:00,48.0,42.0,30.26,NNW,345,19.0,31.0,81,0.00,,,0.00,,2013-05-03 09:52:00,
2013-05-03 03:02:00,48.0,43.0,30.26,NNW,344,18.0,28.0,83,0.00,,,0.00,,2013-05-03 10:02:00,
2013-05-03 03:12:00,48.0,43.0,30.26,NNW,343,17.0,27.0,84,0.00,,,0.00,,2013-05-03 10:12:00,
2013-05-03 03:22:00,48.0,43.0,30.26,NNW,343,17.0,27.0,84,0.00,,,0.00,,2013-05-03 10:22:00,
2013-05-03 03:32:00,48.0,44.0,30.26,North,350,18.0,26.0,85,0.00,,,0.00,,2013-05-03 10:32:00,
2013-05-03 03:41:00,48.0,44.0,30.26,North,350,18.0,26.0,85,0.00,,,0.00,,2013-05-03 10:41:00,
2013-05-03 03:52:00,47.0,43.0,30.25,NNW,341,18.0,26.0,86,0.00,,,0.00,,2013-05-03 10:52:00,
2013-05-03 04:02:00,47.0,42.0,30.25,NNW,348,19.0,24.0,84,0.00,,,0.00,,2013-05-03 11:02:00,
2013-05-03 04:11:00,47.0,42.0,30.25,NNW,348,19.0,24.0,84,0.00,,,0.00,,2013-05-03 11:11:00,
2013-05-03 04:21:00,48.0,42.0,30.25,NNW,348,17.0,24.0,81,0.00,,,0.00,,2013-05-03 11:21:00,
2013-05-03 04:31:00,50.0,43.0,30.25,North,7,16.0,20.0,77,0.00,,,0.00,,2013-05-03 11:31:00,
2013-05-03 04:41:00,50.0,43.0,30.25,North,7,16.0,20.0,77,0.00,,,0.00,,2013-05-03 11:41:00,
2013-05-03 04:52:00,51.0,41.0,30.26,North,351,8.0,17.0,69,0.00,,,0.00,,2013-05-03 11:52:00,
2013-05-03 05:01:00,50.0,41.0,30.25,NNW,337,13.0,16.0,71,0.00,,,0.00,,2013-05-03 12:01:00,
2013-05-03 05:11:00,50.0,41.0,30.25,NNW,337,13.0,16.0,71,0.00,,,0.00,,2013-05-03 12:11:00,
2013-05-03 05:21:00,48.0,40.0,30.25,NNW,340,12.0,18.0,75,0.00,,,0.00,,2013-05-03 12:21:00,
2013-05-03 05:32:00,48.0,39.0,30.24,NNW,341,14.0,18.0,72,0.00,,,0.00,,2013-05-03 12:32:00,
2013-05-03 05:41:00,48.0,39.0,30.24,NNW,341,14.0,18.0,72,0.00,,,0.00,,2013-05-03 12:41:00,
2013-05-03 05:52:00,48.0,39.0,30.24,North,354,15.0,18.0,71,0.00,,,0.00,,2013-05-03 12:52:00,
2013-05-03 06:01:00,49.0,39.0,30.24,NNW,347,15.0,17.0,69,0.00,,,0.00,,2013-05-03 13:01:00,
2013-05-03 06:11:00,49.0,39.0,30.24,NNW,347,15.0,17.0,69,0.00,,,0.00,,2013-05-03 13:11:00,
2013-05-03 06:22:00,50.0,39.0,30.25,North,357,12.0,14.0,67,0.00,,,0.00,,2013-05-03 13:22:00,
2013-05-03 06:31:00,50.0,39.0,30.25,North,354,11.0,15.0,65,0.00,,,0.00,,2013-05-03 13:31:00,
2013-05-03 06:42:00,50.0,39.0,30.25,North,354,11.0,15.0,65,0.00,,,0.00,,2013-05-03 13:42:00,
2013-05-03 06:52:00,50.0,39.0,30.26,NNW,347,14.0,18.0,65,0.00,,,0.00,,2013-05-03 13:52:00,
2013-05-03 07:01:00,51.0,39.0,30.26,NNW,343,12.0,18.0,63,0.00,,,0.00,,2013-05-03 14:01:00,
2013-05-03 07:11:00,51.0,39.0,30.26,NNW,343,12.0,18.0,63,0.00,,,0.00,,2013-05-03 14:11:00,
2013-05-03 07:21:00,51.0,38.0,30.26,North,352,9.0,18.0,61,0.00,,,0.00,,2013-05-03 14:21:00,
2013-05-03 07:31:00,51.0,39.0,30.27,North,351,10.0,16.0,63,0.00,,,0.00,,2013-05-03 14:31:00,
2013-05-03 07:41:00,51.0,39.0,30.27,North,351,10.0,16.0,63,0.00,,,0.00,,2013-05-03 14:41:00,
2013-05-03 07:52:00,52.0,39.0,30.26,North,357,12.0,20.0,61,0.00,,,0.00,,2013-05-03 14:52:00,
2013-05-03 08:01:00,52.0,39.0,30.27,North,7,12.0,19.0,60,0.00,,,0.00,,2013-05-03 15:01:00,
2013-05-03 08:11:00,52.0,39.0,30.27,North,7,12.0,19.0,60,0.00,,,0.00,,2013-05-03 15:11:00,
2013-05-03 08:21:00,53.0,39.0,30.27,North,355,8.0,18.0,59,0.00,,,0.00,,2013-05-03 15:21:00,
2013-05-03 08:32:00,53.0,39.0,30.27,NNW,333,9.0,16.0,58,0.00,,,0.00,,2013-05-03 15:32:00,
2013-05-03 08:43:00,53.0,39.0,30.27,NNW,333,9.0,16.0,58,0.00,,,0.00,,2013-05-03 15:43:00,
2013-05-03 08:53:00,54.0,39.0,30.27,NNW,348,10.0,12.0,57,0.00,,,0.00,,2013-05-03 15:53:00,
2013-05-03 09:02:00,55.0,39.0,30.27,North,355,9.0,15.0,54,0.00,,,0.00,,2013-05-03 16:02:00,
2013-05-03 09:12:00,55.0,39.0,30.27,North,355,9.0,15.0,54,0.00,,,0.00,,2013-05-03 16:12:00,
2013-05-03 09:22:00,56.0,39.0,30.27,NNW,338,8.0,16.0,52,0.00,,,0.00,,2013-05-03 16:22:00,
2013-05-03 09:32:00,57.0,39.0,30.26,North,354,10.0,18.0,50,0.00,,,0.00,,2013-05-03 16:32:00,
2013-05-03 09:41:00,57.0,39.0,30.26,North,354,10.0,18.0,50,0.00,,,0.00,,2013-05-03 16:41:00,
2013-05-03 09:52:00,58.0,38.0,30.26,North,350,9.0,12.0,48,0.00,,,0.00,,2013-05-03 16:52:00,
2013-05-03 10:02:00,59.0,39.0,30.26,North,354,10.0,14.0,47,0.00,,,0.00,,2013-05-03 17:02:00,
2013-05-03 10:11:00,60.0,39.0,30.25,NNW,348,9.0,14.0,46,0.00,,,0.00,,2013-05-03 17:11:00,
2013-05-03 10:22:00,60.0,39.0,30.25,NNW,348,9.0,14.0,46,0.00,,,0.00,,2013-05-03 17:22:00,
2013-05-03 10:31:00,60.0,40.0,30.25,NNW,344,5.0,12.0,47,0.00,,,0.00,,2013-05-03 17:31:00,
2013-05-03 10:42:00,60.0,40.0,30.25,NNW,344,5.0,12.0,47,0.00,,,0.00,,2013-05-03 17:42:00,
2013-05-03 10:52:00,61.0,43.0,30.25,NNW,344,7.0,9.0,51,0.00,,,0.00,,2013-05-03 17:52:00,
2013-05-03 11:01:00,60.0,42.0,30.24,North,357,10.0,13.0,52,0.00,,,0.00,,2013-05-03 18:01:00,
2013-05-03 11:11:00,60.0,42.0,30.24,North,357,10.0,13.0,52,0.00,,,0.00,,2013-05-03 18:11:00,
2013-05-03 11:21:00,61.0,42.0,30.24,North,4,11.0,16.0,50,0.00,,,0.00,,2013-05-03 18:21:00,
2013-05-03 11:31:00,62.0,42.0,30.23,NNW,347,11.0,19.0,47,0.00,,,0.00,,2013-05-03 18:31:00,
2013-05-03 11:41:00,62.0,42.0,30.23,NNW,347,11.0,19.0,47,0.00,,,0.00,,2013-05-03 18:41:00,
2013-05-03 11:52:00,63.0,41.0,30.23,NNW,341,14.0,22.0,45,0.00,,,0.00,,2013-05-03 18:52:00,
2013-05-03 12:01:00,63.0,41.0,30.22,North,350,11.0,20.0,45,0.00,,,0.00,,2013-05-03 19:01:00,
2013-05-03 12:11:00,63.0,41.0,30.22,North,350,11.0,20.0,45,0.00,,,0.00,,2013-05-03 19:11:00,
2013-05-03 12:21:00,64.0,42.0,30.22,NNW,341,15.0,20.0,45,0.00,,,0.00,,2013-05-03 19:21:00,
2013-05-03 12:31:00,64.0,42.0,30.22,North,352,13.0,25.0,45,0.00,,,0.00,,2013-05-03 19:31:00,
2013-05-03 12:41:00,64.0,42.0,30.22,North,352,13.0,25.0,45,0.00,,,0.00,,2013-05-03 19:41:00,
2013-05-03 12:52:00,64.0,43.0,30.21,NNW,343,13.0,24.0,46,0.00,,,0.00,,2013-05-03 19:52:00,
2013-05-03 13:02:00,63.0,42.0,30.21,North,351,15.0,24.0,46,0.00,,,0.00,,2013-05-03 20:02:00,
2013-05-03 13:11:00,63.0,42.0,30.21,North,351,15.0,24.0,46,0.00,,,0.00,,2013-05-03 20:11:00,
2013-05-03 13:21:00,62.0,43.0,30.20,NW,323,18.0,26.0,50,0.00,,,0.00,,2013-05-03 20:21:00,
2013-05-03 13:31:00,61.0,44.0,30.20,NNW,333,16.0,30.0,53,0.00,,,0.00,,2013-05-03 20:31:00,
2013-05-03 13:41:00,61.0,44.0,30.20,NNW,333,16.0,30.0,53,0.00,,,0.00,,2013-05-03 20:41:00,
2013-05-03 13:52:00,61.0,42.0,30.20,NNW,337,19.0,33.0,50,0.00,,,0.00,,2013-05-03 20:52:00,
2013-05-03 14:01:00,61.0,43.0,30.20,NNW,340,17.0,30.0,51,0.00,,,0.00,,2013-05-03 21:01:00,
2013-05-03 14:11:00,61.0,43.0,30.20,NNW,340,17.0,30.0,51,0.00,,,0.00,,2013-05-03 21:11:00,
2013-05-03 14:21:00,62.0,44.0,30.21,NNW,329,15.0,34.0,52,0.00,,,0.00,,2013-05-03 21:21:00,
2013-05-03 14:32:00,61.0,42.0,30.20,NW,315,17.0,32.0,50,0.00,,,0.00,,2013-05-03 21:32:00,
2013-05-03 14:42:00,61.0,42.0,30.20,NW,315,17.0,32.0,50,0.00,,,0.00,,2013-05-03 21:42:00,
2013-05-03 14:52:00,62.0,42.0,30.19,WNW,302,18.0,30.0,47,0.00,,,0.00,,2013-05-03 21:52:00,
2013-05-03 15:02:00,62.0,42.0,30.19,NW,309,16.0,31.0,47,0.00,,,0.00,,2013-05-03 22:02:00,
2013-05-03 15:22:00,61.0,42.0,30.19,NW,305,17.0,34.0,49,0.00,,,0.00,,2013-05-03 22:22:00,
2013-05-03 15:32:00,62.0,43.0,30.18,WNW,287,16.0,31.0,49,0.00,,,0.00,,2013-05-03 22:32:00,
2013-05-03 15:42:00,62.0,43.0,30.18,WNW,287,16.0,31.0,49,0.00,,,0.00,,2013-05-03 22:42:00,
2013-05-03 15:52:00,63.0,42.0,30.17,NW,324,14.0,29.0,47,0.00,,,0.00,,2013-05-03 22:52:00,
2013-05-03 16:01:00,64.0,42.0,30.16,NW,308,19.0,29.0,45,0.00,,,0.00,,2013-05-03 23:01:00,
2013-05-03 16:11:00,64.0,42.0,30.16,NW,308,19.0,29.0,45,0.00,,,0.00,,2013-05-03 23:11:00,
2013-05-03 16:21:00,64.0,43.0,30.16,NW,317,19.0,29.0,46,0.00,,,0.00,,2013-05-03 23:21:00,
2013-05-03 16:31:00,62.0,42.0,30.16,NNW,336,15.0,30.0,47,0.00,,,0.00,,2013-05-03 23:31:00,
2013-05-03 16:41:00,62.0,42.0,30.16,NNW,336,15.0,30.0,47,0.00,,,0.00,,2013-05-03 23:41:00,
2013-05-03 17:01:00,62.0,43.0,30.15,NNW,334,22.0,28.0,49,0.00,,,0.00,,2013-05-04 00:01:00,
2013-05-03 17:11:00,62.0,43.0,30.15,NNW,334,22.0,28.0,49,0.00,,,0.00,,2013-05-04 00:11:00,
2013-05-03 17:22:00,60.0,42.0,30.15,NNW,338,16.0,32.0,51,0.00,,,0.00,,2013-05-04 00:22:00,
2013-05-03 17:31:00,60.0,42.0,30.15,NNW,338,16.0,32.0,51,0.00,,,0.00,,2013-05-04 00:31:00,
2013-05-03 17:41:00,60.0,42.0,30.15,NNW,338,16.0,32.0,51,0.00,,,0.00,,2013-05-04 00:41:00,
2013-05-03 17:52:00,59.0,41.0,30.14,NW,309,19.0,37.0,52,0.00,,,0.00,,2013-05-04 00:52:00,
2013-05-03 18:01:00,58.0,42.0,30.13,NNW,329,20.0,34.0,55,0.00,,,0.00,,2013-05-04 01:01:00,
2013-05-03 18:11:00,58.0,42.0,30.13,NNW,329,20.0,34.0,55,0.00,,,0.00,,2013-05-04 01:11:00,
2013-05-03 18:21:00,58.0,43.0,30.13,NNW,336,20.0,33.0,58,0.00,,,0.00,,2013-05-04 01:21:00,
2013-05-03 18:31:00,57.0,44.0,30.12,NNW,334,19.0,30.0,61,0.00,,,0.00,,2013-05-04 01:31:00,
2013-05-03 18:41:00,57.0,42.0,30.12,NNW,331,19.0,35.0,58,0.00,,,0.00,,2013-05-04 01:41:00,
2013-05-03 18:52:00,57.0,42.0,30.12,NNW,331,19.0,35.0,58,0.00,,,0.00,,2013-05-04 01:52:00,
2013-05-03 19:02:00,57.0,44.0,30.11,NW,313,18.0,29.0,62,0.00,,,0.00,,2013-05-04 02:02:00,
2013-05-03 19:11:00,57.0,44.0,30.11,NW,313,18.0,29.0,62,0.00,,,0.00,,2013-05-04 02:11:00,
2013-05-03 19:21:00,57.0,44.0,30.11,NW,309,15.0,30.0,62,0.00,,,0.00,,2013-05-04 02:21:00,
2013-05-03 19:32:00,56.0,45.0,30.11,NW,319,15.0,25.0,67,0.00,,,0.00,,2013-05-04 02:32:00,
2013-05-03 19:41:00,56.0,45.0,30.11,NW,319,15.0,25.0,67,0.00,,,0.00,,2013-05-04 02:41:00,
2013-05-03 19:52:00,54.0,44.0,30.11,NW,320,16.0,26.0,68,0.00,,,0.00,,2013-05-04 02:52:00,
2013-05-03 20:01:00,55.0,43.0,30.11,NNW,329,19.0,28.0,65,0.00,,,0.00,,2013-05-04 03:01:00,
2013-05-03 20:11:00,54.0,44.0,30.11,NNW,341,19.0,27.0,68,0.00,,,0.00,,2013-05-04 03:11:00,
2013-05-03 20:21:00,54.0,44.0,30.11,NNW,341,19.0,27.0,68,0.00,,,0.00,,2013-05-04 03:21:00,
2013-05-03 20:32:00,53.0,44.0,30.11,NNW,334,20.0,26.0,72,0.00,,,0.00,,2013-05-04 03:32:00,
2013-05-03 20:42:00,53.0,44.0,30.11,NNW,334,20.0,26.0,72,0.00,,,0.00,,2013-05-04 03:42:00,
2013-05-03 20:52:00,52.0,44.0,30.11,NNW,347,21.0,27.0,74,0.00,,,0.00,,2013-05-04 03:52:00,
2013-05-03 21:02:00,52.0,44.0,30.11,NNW,338,20.0,28.0,74,0.00,,,0.00,,2013-05-04 04:02:00,
2013-05-03 21:12:00,52.0,44.0,30.11,NNW,338,20.0,28.0,74,0.00,,,0.00,,2013-05-04 04:12:00,
2013-05-03 21:22:00,52.0,44.0,30.11,NNW,337,22.0,29.0,75,0.00,,,0.00,,2013-05-04 04:22:00,
2013-05-03 21:32:00,53.0,45.0,30.11,North,351,20.0,28.0,73,0.00,,,0.00,,2013-05-04 04:32:00,
2013-05-03 21:42:00,53.0,45.0,30.11,North,351,20.0,28.0,73,0.00,,,0.00,,2013-05-04 04:42:00,
2013-05-03 21:52:00,53.0,45.0,30.11,NNW,336,21.0,27.0,74,0.00,,,0.00,,2013-05-04 04:52:00,
2013-05-03 22:02:00,52.0,45.0,30.11,NNW,344,24.0,28.0,76,0.00,,,0.00,,2013-05-04 05:02:00,
2013-05-03 22:11:00,55.0,47.0,30.11,North,352,21.0,28.0,73,0.00,,,0.00,,2013-05-04 05:11:00,
2013-05-03 22:21:00,55.0,47.0,30.11,North,352,21.0,28.0,73,0.00,,,0.00,,2013-05-04 05:21:00,
2013-05-03 22:32:00,59.0,44.0,30.11,North,1,17.0,27.0,57,0.00,,,0.00,,2013-05-04 05:32:00,
2013-05-03 22:42:00,59.0,44.0,30.11,North,1,17.0,27.0,57,0.00,,,0.00,,2013-05-04 05:42:00,
2013-05-03 22:52:00,60.0,45.0,30.11,North,1,15.0,17.0,57,0.00,,,0.00,,2013-05-04 05:52:00,
2013-05-03 23:01:00,61.0,45.0,30.10,North,0,11.0,14.0,56,0.00,,,0.00,,2013-05-04 06:01:00,
2013-05-03 23:11:00,61.0,45.0,30.10,North,7,9.0,14.0,55,0.00,,,0.00,,2013-05-04 06:11:00,
2013-05-03 23:21:00,61.0,45.0,30.10,North,7,9.0,14.0,55,0.00,,,0.00,,2013-05-04 06:21:00,
2013-05-03 23:31:00,62.0,45.0,30.10,North,357,10.0,15.0,54,0.00,,,0.00,,2013-05-04 06:31:00,
2013-05-03 23:51:00,62.0,45.0,30.10,North,2,10.0,13.0,53,0.00,,,0.00,,2013-05-04 06:51:00,